+ View the NASA Portal
+ Center for Near-Earth Object Studies
IMPORTANT:
The SSD Announcement email list is now available. Major changes are coming in the near future, including possible hostname and/or URL changes. To be notified of such changes, subscribe to this email list.
Please visit
this page
for more details.
Don't show this message again
JPL Small-Body Database Browser
Search:
[
help
]
212204 (2005 GZ151)
Classification:
Main-belt Asteroid
SPK-ID:
2212204
[
Ephemeris
|
Orbit Diagram
|
Orbital Elements
|
Mission Design
|
Physical Parameters
|
Discovery Circumstances
]
[ show orbit diagram ]
Orbital Elements at Epoch 2458600.5 (2019-Apr-27.0) TDB
Reference:
JPL 13
(heliocentric ecliptic J2000)
Element
Value
Uncertainty (1-sigma)
Units
e
.1086550492333603
7.2587e-08
a
2.644199883619212
2.2978e-08
au
q
2.356894215081721
1.8245e-07
au
i
10.08019196592064
6.7489e-06
deg
node
24.52474767731637
3.1372e-05
deg
peri
163.5202631706001
3.9947e-05
deg
M
111.3338621906483
2.7652e-05
deg
t
p
2458114.803891475050
(2017-Dec-27.30389147)
0.00011829
TDB
period
1570.506902648968
4.30
2.0472e-05
5.605e-08
d
yr
n
.2292253535420884
2.988e-09
deg/d
Q
2.931505552156703
2.5475e-08
au
Orbit Determination Parameters
# obs. used (total)
323
data-arc span
7691 days (21.06 yr)
first obs. used
1998-10-12
last obs. used
2019-11-02
planetary ephem.
DE431
SB-pert. ephem.
SB431-N16
condition code
0
norm. resid. RMS
.65306
source
ORB
producer
Otto Matic
solution date
2019-Dec-04 16:52:00
Additional Information
Earth MOID
= 1.35901 au
Jupiter MOID
= 2.02613 au
T_jup
= 3.363
[ show covariance matrix ]
[
Ephemeris
|
Orbit Diagram
|
Orbital Elements
|
Mission Design
|
Physical Parameters
|
Discovery Circumstances
]
Physical Parameter Table
Parameter
Symbol
Value
Units
Sigma
Reference
Notes
absolute magnitude
H
15.9
n/a
MPO254366
212204 (2005 GZ151)
Discovered 2005-Apr-12 by Spacewatch at Kitt Peak
Reference:
20090409/Numbers.arc
Last Updated:
2009-04-10
[
Ephemeris
|
Orbit Diagram
|
Orbital Elements
|
Mission Design
|
Physical Parameters
|
Discovery Circumstances
]
2019-Dec-16 13:27 UT
(server date/time)
Site Manager:
Ryan S. Park
Webmaster
:
Alan B. Chamberlin